Location: ??????
(38.1303°N, 24.0039°E)
Time: 04:31:42
(UTC+00:00)

Daily predictions for brighter satellites

Satellite Brightness Start Highest point End
(mag) Time Altitude Azimuth Time Altitude Azimuth Time Altitude Azimuth
Cosmos 2151 3.3 00:08:22 54° ESE 00:08:36 55° E 00:12:43 10° NNE
IDEFIX/ARIANE 42P 4.4 00:04:46 10° NE 00:08:48 22° E 00:11:29 15° SE
Cosmos 1825 4.3 00:13:02 18° NW 00:13:02 18° NW 00:14:54 10° NNW
Cosmos 1076 Rocket 3.5 00:12:59 67° WNW 00:12:59 67° WNW 00:17:03 10° N
AQUA 3.9 00:10:48 10° NNE 00:15:34 72° ESE 00:16:24 58° SSE
Cosmos 540 Rocket 4.3 00:15:11 34° W 00:15:57 35° WNW 00:20:39 10° N
DELTA 2 R/B (1) 3.6 00:16:57 31° W 00:19:40 79° N 00:25:13 10° E
NOSS 2-2 (E) 4.1 00:20:41 37° NW 00:20:41 37° NW 00:23:50 10° NNE
Cosmos 841 Rocket 4.3 00:23:03 33° W 00:23:59 36° WNW 00:28:44 10° N
Cosmos 1437 4.5 00:23:10 10° N 00:24:28 25° NNW 00:24:28 25° NNW
Cosmos 2292 Rocket 3.9 00:26:32 36° ENE 00:26:32 36° ENE 00:28:59 10° NNE
Cosmos 1242 Rocket 3.7 00:23:43 10° NNW 00:26:09 34° NW 00:26:09 34° NW
IRS-1D 4.1 00:23:51 10° NNE 00:28:49 50° E 00:30:46 32° SSE
Cosmos 2221 3.6 00:25:12 10° NNW 00:28:23 30° WNW 00:28:23 30° WNW
Cosmos 1656 Rocket 4.0 00:24:16 10° NW 00:29:40 46° WSW 00:30:16 44° SW
X-37B 2.9 00:28:47 12° NW 00:31:12 25° N 00:33:54 10° ENE
Cosmos 2026 Rocket 4.0 00:31:26 41° SSW 00:33:42 72° W 00:40:03 10° N
NOSS 2-2 (C) 4.0 00:34:05 35° NW 00:34:07 35° NW 00:37:25 10° NNE
Cosmos 1937 Rocket 4.3 00:32:31 10° NW 00:37:17 34° W 00:37:19 34° W
Meteor 2-15 Rocket 4.4 00:31:50 10° N 00:37:58 75° W 00:40:41 35° S
Dummy Sat-01 4.5 00:38:35 76° S 00:38:52 88° W 00:42:40 10° N
Cosmos 2369 Rocket 3.5 00:35:07 10° NW 00:38:58 23° W 00:38:58 23° W
USA 307 4.1 00:38:07 27° WNW 00:39:33 34° NW 00:43:27 10° NNE
Aureole 3 Rocket 3.6 00:36:40 10° NNW 00:40:50 52° W 00:41:59 43° SW
GPS 2-04 Rocket1 2.8 00:41:36 57° SSE 00:41:36 57° SSE 00:45:08 10° E
Cosmos 1782 4.0 00:39:50 10° N 00:43:37 39° E 00:46:08 18° SE
ATLAS 5 CENTAUR R/B 2.5 00:48:04 27° WNW 00:49:02 31° NW 00:52:52 10° NNE
OAO 1 4.5 00:47:17 33° WSW 00:49:38 64° S 00:55:03 10° ESE
SL-19 R/B 4.4 00:46:27 10° N 00:51:38 57° WNW 00:53:45 35° SW
ADEOS Rocket 3.3 00:45:29 16° SSE 00:51:43 87° WSW 00:58:32 10° NNW
ERBS 2.0 00:51:55 86° SE 00:51:55 86° SE 00:55:09 10° NE
Cosmos 1633 4.3 00:53:22 20° WNW 00:53:22 20° WNW 00:55:41 10° NNW
Helios 1B rocket 3.4 00:49:56 10° N 00:53:34 32° WNW 00:54:08 30° W
UNK 4.3 00:54:25 36° WSW 00:54:52 37° W 00:59:10 10° NNW
Cosmos 2298 Rocket 4.1 00:50:06 10° NNW 00:55:27 79° ENE 01:00:32 11° SSE
Meteor 2-21 4.5 00:52:06 26° S 00:55:42 82° E 01:01:55 10° N
SeaSat 1 3.0 00:54:07 10° NE 00:58:55 51° ESE 01:01:32 25° S
SL-16 R/B 3.1 00:59:52 30° SW 01:01:57 39° W 01:07:41 10° NNW
Cosmos 1833 Rocket 4.3 00:58:38 11° SSE 01:03:11 28° ESE 01:07:55 10° NE
IRIDIUM 104 4.2 01:01:17 10° N 01:06:31 79° W 01:09:40 24° S
Cosmos 2150 Rocket 3.9 01:01:47 10° NNW 01:07:01 88° WSW 01:12:18 10° SSE
Cosmos 2266 Rocket 4.2 01:04:30 16° S 01:09:29 65° E 01:15:29 10° NNE
Cosmos 1933 3.7 01:06:40 10° NNW 01:10:36 47° W 01:11:43 36° SW
DELTA 2 DEB (DPAF) 4.0 01:08:09 24° S 01:10:46 75° WSW 01:15:13 10° NNW
Meteor 1-28 Rocket 3.1 01:10:53 33° S 01:12:29 71° W 01:16:17 10° NNW
CZ-4C R/B 2.1 01:11:22 28° S 01:13:48 63° ESE 01:19:12 10° NE
Cosmos 1125 Rocket 3.5 01:09:51 10° NNW 01:15:08 89° ENE 01:20:25 10° SSE
IRIDIUM 114 4.3 01:10:29 10° N 01:15:39 64° W 01:18:48 23° SSW
BREEZE-M DEB (TANK) 3.8 01:15:11 25° SSW 01:17:17 38° SSE 01:20:13 10° E
Tianhe-1 2.0 01:17:27 32° SSE 01:17:45 32° SSE 01:20:38 10° E
Lacrosse 4 Rocket 1.7 01:14:58 10° NW 01:18:48 42° WSW 01:20:08 31° SSW
Cosmos 1151 Rocket 2.9 01:15:47 10° N 01:20:04 82° W 01:23:06 19° S
BREEZE-M R/B 4.3 01:18:11 10° W 01:21:22 34° N 01:27:16 10° NE
CZ-4B R/B 4.2 01:16:39 10° NNE 01:21:48 54° E 01:26:29 12° S
Resurs 1-4 Rocket 3.9 01:18:30 10° NNW 01:22:00 18° WNW 01:24:23 14° W
ARIANE 5 R/B 3.0 01:17:36 10° NNE 01:22:32 57° E 01:26:54 13° S
Cosmos 1766 Rocket 3.8 01:21:59 28° SW 01:24:06 55° W 01:28:30 10° N
NOSS 5 (C) 4.5 01:21:39 10° NW 01:24:57 74° WSW 01:29:16 10° SSE
Cosmos 2082 Rocket 4.3 01:21:58 10° SSE 01:25:59 21° E 01:30:02 10° NE
Cosmos 1408 Rocket 3.7 01:23:31 18° S 01:26:48 76° E 01:31:16 10° N
IKONOS-2 4.4 01:25:33 14° S 01:29:05 74° WSW 01:33:18 10° NNW
COSMOS 2441 4.4 01:26:48 10° NNE 01:31:39 83° ESE 01:35:33 16° S
ADEOS II 3.2 01:29:25 10° N 01:33:56 30° WNW 01:36:49 18° WSW
Okean 3 Rocket 4.1 01:32:35 24° SW 01:34:47 42° W 01:38:57 10° N
Cosmos 1862 3.2 01:32:29 20° S 01:35:13 82° W 01:39:17 10° N
Cosmos 1655 Rocket 4.0 01:32:13 17° SSW 01:37:02 65° W 01:43:15 10° N
Lacrosse 5 rocket 4.0 01:36:29 10° NNW 01:39:18 21° NE 01:42:10 10° E
CZ-2D R/B 4.2 01:38:30 10° NW 01:40:28 12° WNW 01:42:26 10° W
FALCON 9 DEB 3.2 01:37:34 10° WNW 01:40:50 48° SW 01:44:06 10° SSE
Meteor 2-16 Rocket 4.5 01:37:05 15° SSW 01:42:10 67° W 01:48:16 10° N
ASTEX 1 3.5 01:38:22 14° S 01:42:31 56° W 01:47:22 10° NNW
Alouette 2 Rocket 3.7 01:40:04 10° NNW 01:43:35 47° W 01:48:03 10° S
IDEFIX/ARIANE 42P 3.2 01:43:37 10° N 01:48:29 41° WNW 01:52:17 16° SW
COSMOS 2406 3.5 01:43:43 11° S 01:49:04 68° ESE 01:54:43 10° NNE
OAO 3 Rocket 4.2 01:51:44 16° SSW 01:54:47 31° SSE 01:58:59 10° E
PAYLOAD A 4.4 01:54:04 10° NNE 01:59:08 68° ESE 02:04:21 10° S
Spot 4 Rocket 4.2 01:55:36 10° NNE 02:00:46 79° ESE 02:05:54 10° S
CZ-2D R/B 3.4 01:59:56 10° N 02:04:05 70° WNW 02:08:06 10° SSW
Cosmos 2315 Rocket 4.0 01:59:24 10° N 02:05:36 79° W 02:11:48 10° S
DELTA 2 R/B (1) 3.6 02:00:41 10° WNW 02:06:16 89° NNE 02:11:50 10° ESE
Cosmos 1656 3.7 02:02:10 10° NNW 02:07:54 83° WSW 02:13:34 10° SSE
X-37B 0.7 02:04:58 10° WNW 02:08:09 77° NNE 02:11:19 10° ESE
BREEZE-M DEB (TANK) 3.8 02:07:36 10° NW 02:09:47 33° NE 02:13:45 10° ESE
SL-08 R/B 3.3 02:05:19 10° S 02:09:54 63° WSW 02:14:36 10° NNW
Cosmos 1805 Rocket 4.0 02:06:06 10° S 02:10:25 64° E 02:14:47 10° NNE
Cosmos 1812 3.6 02:09:26 10° NNW 02:12:51 31° W 02:16:14 10° SSW
USA 281 3.5 02:07:41 10° S 02:13:54 45° WSW 02:20:11 10° NW
Delta 2 Rocket 3.3 02:10:10 10° WSW 02:14:06 55° S 02:17:40 10° E
CZ-2C R/B 2.9 02:12:30 10° NNE 02:16:21 76° ESE 02:20:06 10° S
CZ-2C R/B 2.4 02:11:52 10° NNE 02:16:50 88° WNW 02:21:35 10° SSW
CZ-2C R/B 2.5 02:16:14 10° SSW 02:18:52 21° SSE 02:21:26 10° ESE
Cosmos 2084 Rocket 3.9 02:15:40 11° WSW 02:19:17 41° NW 02:23:05 10° NNE
Cosmos 1697 Rocket 3.3 02:13:47 10° NNW 02:19:24 62° ENE 02:24:59 10° SE
FALCON 9 DEB 3.2 02:16:41 10° NW 02:19:47 71° NE 02:22:53 10° SE
GPS 2-04 Rocket1 2.9 02:16:43 10° W 02:20:30 46° SSW 02:24:08 10° ESE
Cosmos 1271 Rocket 4.3 02:19:08 10° NW 02:21:38 17° W 02:24:08 10° SW
NOSS 3-4 (A) 3.5 02:20:44 10° SSW 02:26:29 78° ESE 02:32:34 10° NE
NOSS 3-4 (C) 3.5 02:20:51 10° SSW 02:26:37 77° ESE 02:32:42 10° NE
Cosmos 1500 Rocket 4.1 02:24:53 10° SSW 02:28:55 39° W 02:32:59 10° N
